Year,Month,Day,Hour,Minute,Value (Times are PST for temperature in C)
2015,05,19,00,00,13.00
2015,05,19,00,01,13.00
2015,05,19,00,02,13.00
2015,05,19,00,03,13.00
2015,05,19,00,04,13.00
2015,05,19,00,05,13.00
2015,05,19,00,06,13.00
2015,05,19,00,07,13.00
2015,05,19,00,08,13.00
2015,05,19,00,09,12.90
2015,05,19,00,10,12.90
2015,05,19,00,11,12.90
2015,05,19,00,12,12.90
2015,05,19,00,13,12.90
2015,05,19,00,14,12.90
2015,05,19,00,15,12.90
2015,05,19,00,16,12.90
2015,05,19,00,17,12.90
2015,05,19,00,18,12.90
2015,05,19,00,19,12.90
2015,05,19,00,20,12.80
2015,05,19,00,21,12.80
2015,05,19,00,22,12.80
2015,05,19,00,23,12.80
2015,05,19,00,24,12.80
2015,05,19,00,25,12.80
2015,05,19,00,26,12.80
2015,05,19,00,27,12.80
2015,05,19,00,28,12.80
2015,05,19,00,29,12.80
2015,05,19,00,30,12.80
2015,05,19,00,31,12.80
2015,05,19,00,32,12.80
2015,05,19,00,33,12.80
2015,05,19,00,34,12.80
2015,05,19,00,35,12.80
2015,05,19,00,36,12.80
2015,05,19,00,37,12.80
2015,05,19,00,38,12.80
2015,05,19,00,39,12.80
2015,05,19,00,40,12.80
2015,05,19,00,41,12.80
2015,05,19,00,42,12.80
2015,05,19,00,43,12.80
2015,05,19,00,44,12.80
2015,05,19,00,45,12.80
2015,05,19,00,46,12.80
2015,05,19,00,47,12.80
2015,05,19,00,48,12.80
2015,05,19,00,49,12.70
2015,05,19,00,50,12.70
2015,05,19,00,51,12.70
2015,05,19,00,52,12.70
2015,05,19,00,53,12.60
2015,05,19,00,54,12.60
2015,05,19,00,55,12.60
2015,05,19,00,56,12.60
2015,05,19,00,57,12.50
2015,05,19,00,58,12.50
2015,05,19,00,59,12.50
2015,05,19,01,00,12.50
2015,05,19,01,01,12.50
2015,05,19,01,02,12.40
2015,05,19,01,03,12.40
2015,05,19,01,04,12.40
2015,05,19,01,05,12.40
2015,05,19,01,06,12.30
2015,05,19,01,07,12.30
2015,05,19,01,08,12.30
2015,05,19,01,09,12.30
2015,05,19,01,10,12.30
2015,05,19,01,11,12.30
2015,05,19,01,12,12.30
2015,05,19,01,13,12.30
2015,05,19,01,14,12.30
2015,05,19,01,15,12.30
2015,05,19,01,16,12.30
2015,05,19,01,17,12.30
2015,05,19,01,18,12.30
2015,05,19,01,19,12.30
2015,05,19,01,20,12.30
2015,05,19,01,21,12.20
2015,05,19,01,22,12.20
2015,05,19,01,23,12.20
2015,05,19,01,24,12.20
2015,05,19,01,25,12.20
2015,05,19,01,26,12.10
2015,05,19,01,27,12.10
2015,05,19,01,28,12.10
2015,05,19,01,29,12.10
2015,05,19,01,30,12.00
2015,05,19,01,31,12.00
2015,05,19,01,32,12.00
2015,05,19,01,33,12.00
2015,05,19,01,34,12.00
2015,05,19,01,35,12.00
2015,05,19,01,36,11.90
2015,05,19,01,37,11.90
2015,05,19,01,38,11.90
2015,05,19,01,39,11.90
2015,05,19,01,40,11.90
2015,05,19,01,41,11.90
2015,05,19,01,42,11.90
2015,05,19,01,43,11.90
2015,05,19,01,44,11.90
2015,05,19,01,45,11.90
2015,05,19,01,46,11.80
2015,05,19,01,47,11.80
2015,05,19,01,48,11.80
2015,05,19,01,49,11.80
2015,05,19,01,50,11.80
2015,05,19,01,51,11.80
2015,05,19,01,52,11.80
2015,05,19,01,53,11.80
2015,05,19,01,54,11.80
2015,05,19,01,55,11.80
2015,05,19,01,56,11.80
2015,05,19,01,57,11.80
2015,05,19,01,58,11.80
2015,05,19,01,59,11.80
2015,05,19,02,00,11.80
2015,05,19,02,01,11.80
2015,05,19,02,02,11.80
2015,05,19,02,03,11.80
2015,05,19,02,04,11.80
2015,05,19,02,05,11.80
2015,05,19,02,06,11.80
2015,05,19,02,07,11.80
2015,05,19,02,08,11.80
2015,05,19,02,09,11.80
2015,05,19,02,10,11.80
2015,05,19,02,11,11.70
2015,05,19,02,12,11.70
2015,05,19,02,13,11.70
2015,05,19,02,14,11.70
2015,05,19,02,15,11.70
2015,05,19,02,16,11.70
2015,05,19,02,17,11.70
2015,05,19,02,18,11.70
2015,05,19,02,19,11.60
2015,05,19,02,20,11.60
2015,05,19,02,21,11.60
2015,05,19,02,22,11.60
2015,05,19,02,23,11.60
2015,05,19,02,24,11.60
2015,05,19,02,25,11.60
2015,05,19,02,26,11.60
2015,05,19,02,27,11.60
2015,05,19,02,28,11.60
2015,05,19,02,29,11.60
2015,05,19,02,30,11.60
2015,05,19,02,31,11.60
2015,05,19,02,32,11.50
2015,05,19,02,33,11.40
2015,05,19,02,34,11.40
2015,05,19,02,35,11.40
2015,05,19,02,36,11.40
2015,05,19,02,37,11.40
2015,05,19,02,38,11.40
2015,05,19,02,39,11.40
2015,05,19,02,40,11.40
2015,05,19,02,41,11.40
2015,05,19,02,42,11.40
2015,05,19,02,43,11.40
2015,05,19,02,44,11.40
2015,05,19,02,45,11.40
2015,05,19,02,46,11.40
2015,05,19,02,47,11.40
2015,05,19,02,48,11.40
2015,05,19,02,49,11.40
2015,05,19,02,50,11.40
2015,05,19,02,51,11.40
2015,05,19,02,52,11.30
2015,05,19,02,53,11.30
2015,05,19,02,54,11.30
2015,05,19,02,55,11.30
2015,05,19,02,56,11.30
2015,05,19,02,57,11.30
2015,05,19,02,58,11.30
2015,05,19,02,59,11.30
2015,05,19,03,00,11.30
2015,05,19,03,01,11.30
2015,05,19,03,02,11.20
2015,05,19,03,03,11.30
2015,05,19,03,04,11.30
2015,05,19,03,05,11.30
2015,05,19,03,06,11.30
2015,05,19,03,07,11.30
2015,05,19,03,08,11.30
2015,05,19,03,09,11.30
2015,05,19,03,10,11.30
2015,05,19,03,11,11.30
2015,05,19,03,12,11.20
2015,05,19,03,13,11.20
2015,05,19,03,14,11.30
2015,05,19,03,15,11.30
2015,05,19,03,16,11.30
2015,05,19,03,17,11.30
2015,05,19,03,18,11.30
2015,05,19,03,19,11.30
2015,05,19,03,20,11.40
2015,05,19,03,21,11.40
2015,05,19,03,22,11.40
2015,05,19,03,23,11.40
2015,05,19,03,24,11.40
2015,05,19,03,25,11.40
2015,05,19,03,26,11.40
2015,05,19,03,27,11.40
2015,05,19,03,28,11.40
2015,05,19,03,29,11.40
2015,05,19,03,30,11.40
2015,05,19,03,31,11.30
2015,05,19,03,32,11.30
2015,05,19,03,33,11.30
2015,05,19,03,34,11.30
2015,05,19,03,35,11.30
2015,05,19,03,36,11.30
2015,05,19,03,37,11.30
2015,05,19,03,38,11.20
2015,05,19,03,39,11.20
2015,05,19,03,40,11.20
2015,05,19,03,41,11.20
2015,05,19,03,42,11.20
2015,05,19,03,43,11.30
2015,05,19,03,44,11.30
2015,05,19,03,45,11.30
2015,05,19,03,46,11.30
2015,05,19,03,47,11.30
2015,05,19,03,48,11.30
2015,05,19,03,49,11.30
2015,05,19,03,50,11.20
2015,05,19,03,51,11.20
2015,05,19,03,52,11.20
2015,05,19,03,53,11.20
2015,05,19,03,54,11.20
2015,05,19,03,55,11.20
2015,05,19,03,56,11.20
2015,05,19,03,57,11.20
2015,05,19,03,58,11.20
2015,05,19,03,59,11.30
2015,05,19,04,00,11.30
2015,05,19,04,01,11.20
2015,05,19,04,02,11.20
2015,05,19,04,03,11.20
2015,05,19,04,04,11.20
2015,05,19,04,05,11.20
2015,05,19,04,06,11.20
2015,05,19,04,07,11.20
2015,05,19,04,08,11.20
2015,05,19,04,09,11.20
2015,05,19,04,10,11.20
2015,05,19,04,11,11.10
2015,05,19,04,12,11.10
2015,05,19,04,13,11.10
2015,05,19,04,14,11.10
2015,05,19,04,15,11.10
2015,05,19,04,16,11.10
2015,05,19,04,17,11.10
2015,05,19,04,18,11.10
2015,05,19,04,19,11.10
2015,05,19,04,20,11.10
2015,05,19,04,21,11.10
2015,05,19,04,22,11.10
2015,05,19,04,23,11.10
2015,05,19,04,24,11.10
2015,05,19,04,25,11.10
2015,05,19,04,26,11.10
2015,05,19,04,27,11.10
2015,05,19,04,28,11.10
2015,05,19,04,29,11.10
2015,05,19,04,30,11.10
2015,05,19,04,31,11.10
2015,05,19,04,32,11.00
2015,05,19,04,33,10.90
2015,05,19,04,34,10.90
2015,05,19,04,35,10.90
2015,05,19,04,36,10.90
2015,05,19,04,37,10.90
2015,05,19,04,38,10.90
2015,05,19,04,39,10.90
2015,05,19,04,40,10.90
2015,05,19,04,41,10.90
2015,05,19,04,42,10.90
2015,05,19,04,43,10.90
2015,05,19,04,44,10.90
2015,05,19,04,45,10.90
2015,05,19,04,46,10.90
2015,05,19,04,47,10.90
2015,05,19,04,48,10.90
2015,05,19,04,49,10.90
2015,05,19,04,50,10.90
2015,05,19,04,51,10.90
2015,05,19,04,52,10.90
2015,05,19,04,53,10.80
2015,05,19,04,54,10.80
2015,05,19,04,55,10.80
2015,05,19,04,56,10.80
2015,05,19,04,57,10.80
2015,05,19,04,58,10.80
2015,05,19,04,59,10.80
2015,05,19,05,00,10.70
2015,05,19,05,01,10.70
2015,05,19,05,02,10.70
2015,05,19,05,03,10.70
2015,05,19,05,04,10.70
2015,05,19,05,05,10.70
2015,05,19,05,06,10.70
2015,05,19,05,07,10.70
2015,05,19,05,08,10.80
2015,05,19,05,09,10.80
2015,05,19,05,10,10.80
2015,05,19,05,11,10.80
2015,05,19,05,12,10.80
2015,05,19,05,13,10.80
2015,05,19,05,14,10.70
2015,05,19,05,15,10.70
2015,05,19,05,16,10.70
2015,05,19,05,17,10.60
2015,05,19,05,18,10.60
2015,05,19,05,19,10.60
2015,05,19,05,20,10.60
2015,05,19,05,21,10.60
2015,05,19,05,22,10.60
2015,05,19,05,23,10.60
2015,05,19,05,24,10.60
2015,05,19,05,25,10.60
2015,05,19,05,26,10.60
2015,05,19,05,27,10.60
2015,05,19,05,28,10.60
2015,05,19,05,29,10.60
2015,05,19,05,30,10.60
2015,05,19,05,31,10.60
2015,05,19,05,32,10.60
2015,05,19,05,33,10.60
2015,05,19,05,34,10.60
2015,05,19,05,35,10.60
2015,05,19,05,36,10.60
2015,05,19,05,37,10.60
2015,05,19,05,38,10.60
2015,05,19,05,39,10.60
2015,05,19,05,40,10.60
2015,05,19,05,41,10.60
2015,05,19,05,42,10.60
2015,05,19,05,43,10.60
2015,05,19,05,44,10.60
2015,05,19,05,45,10.60
2015,05,19,05,46,10.60
2015,05,19,05,47,10.60
2015,05,19,05,48,10.60
2015,05,19,05,49,10.60
2015,05,19,05,50,10.60
2015,05,19,05,51,10.60
2015,05,19,05,52,10.70
2015,05,19,05,53,10.70
2015,05,19,05,54,10.70
2015,05,19,05,55,10.70
2015,05,19,05,56,10.80
2015,05,19,05,57,10.80
2015,05,19,05,58,10.90
2015,05,19,05,59,10.90
2015,05,19,06,00,10.90
2015,05,19,06,01,10.90
2015,05,19,06,02,11.00
2015,05,19,06,03,11.10
2015,05,19,06,04,11.10
2015,05,19,06,05,11.10
2015,05,19,06,06,11.10
2015,05,19,06,07,11.10
2015,05,19,06,08,11.10
2015,05,19,06,09,11.10
2015,05,19,06,10,11.10
2015,05,19,06,11,11.10
2015,05,19,06,12,11.10
2015,05,19,06,13,11.10
2015,05,19,06,14,11.20
2015,05,19,06,15,11.20
2015,05,19,06,16,11.20
2015,05,19,06,17,11.20
2015,05,19,06,18,11.20
2015,05,19,06,19,11.30
2015,05,19,06,20,11.30
2015,05,19,06,21,11.30
2015,05,19,06,22,11.30
2015,05,19,06,23,11.40
2015,05,19,06,24,11.40
2015,05,19,06,25,11.40
2015,05,19,06,26,11.40
2015,05,19,06,27,11.40
2015,05,19,06,28,11.40
2015,05,19,06,29,11.40
2015,05,19,06,30,11.40
2015,05,19,06,31,11.60
2015,05,19,06,32,11.60
2015,05,19,06,33,11.60
2015,05,19,06,34,11.60
2015,05,19,06,35,11.60
2015,05,19,06,36,11.60
2015,05,19,06,37,11.70
2015,05,19,06,38,11.70
2015,05,19,06,39,11.70
2015,05,19,06,40,11.70
2015,05,19,06,41,11.80
2015,05,19,06,42,11.80
2015,05,19,06,43,11.80
2015,05,19,06,44,11.80
2015,05,19,06,45,11.80
2015,05,19,06,46,11.90
2015,05,19,06,47,11.90
2015,05,19,06,48,12.00
2015,05,19,06,49,12.00
2015,05,19,06,50,12.00
2015,05,19,06,51,12.10
2015,05,19,06,52,12.20
2015,05,19,06,53,12.20
2015,05,19,06,54,12.30
2015,05,19,06,55,12.40
2015,05,19,06,56,12.50
2015,05,19,06,57,12.60
2015,05,19,06,58,12.70
2015,05,19,06,59,12.80
2015,05,19,07,00,13.00
2015,05,19,07,01,13.10
2015,05,19,07,02,13.20
2015,05,19,07,03,13.30
2015,05,19,07,04,13.40
2015,05,19,07,05,13.50
2015,05,19,07,06,13.60
2015,05,19,07,07,13.70
2015,05,19,07,08,13.80
2015,05,19,07,09,13.90
2015,05,19,07,10,14.00
2015,05,19,07,11,14.10
2015,05,19,07,12,14.20
2015,05,19,07,13,14.20
2015,05,19,07,14,14.20
2015,05,19,07,15,14.20
2015,05,19,07,16,14.30
2015,05,19,07,17,14.30
2015,05,19,07,18,14.40
2015,05,19,07,19,14.40
2015,05,19,07,20,14.40
2015,05,19,07,21,14.50
2015,05,19,07,22,14.50
2015,05,19,07,23,14.50
2015,05,19,07,24,14.50
2015,05,19,07,25,14.60
2015,05,19,07,26,14.60
2015,05,19,07,27,14.70
2015,05,19,07,28,14.70
2015,05,19,07,29,14.70
2015,05,19,07,30,14.80
2015,05,19,07,31,14.80
2015,05,19,07,32,14.80
2015,05,19,07,33,14.90
2015,05,19,07,34,15.00
2015,05,19,07,35,15.10
2015,05,19,07,36,15.10
2015,05,19,07,37,15.20
2015,05,19,07,38,15.30
2015,05,19,07,39,15.30
2015,05,19,07,40,15.40
2015,05,19,07,41,15.50
2015,05,19,07,42,15.60
2015,05,19,07,43,15.70
2015,05,19,07,44,15.80
2015,05,19,07,45,15.90
2015,05,19,07,46,16.10
2015,05,19,07,47,16.10
2015,05,19,07,48,16.20
2015,05,19,07,49,16.30
2015,05,19,07,50,16.40
2015,05,19,07,51,16.40
2015,05,19,07,52,16.50
2015,05,19,07,53,16.60
2015,05,19,07,54,16.60
2015,05,19,07,55,16.60
2015,05,19,07,56,16.70
2015,05,19,07,57,16.70
2015,05,19,07,58,16.80
2015,05,19,07,59,16.80
2015,05,19,08,00,16.90
2015,05,19,08,01,17.00
2015,05,19,08,02,17.00
2015,05,19,08,03,17.10
2015,05,19,08,04,17.20
2015,05,19,08,05,17.20
2015,05,19,08,06,17.30
2015,05,19,08,07,17.30
2015,05,19,08,08,17.30
2015,05,19,08,09,17.30
2015,05,19,08,10,17.30
2015,05,19,08,11,17.30
2015,05,19,08,12,17.30
2015,05,19,08,13,17.30
2015,05,19,08,14,17.30
2015,05,19,08,15,17.30
2015,05,19,08,16,17.30
2015,05,19,08,17,17.40
2015,05,19,08,18,17.50
2015,05,19,08,19,17.60
2015,05,19,08,20,17.70
2015,05,19,08,21,17.70
2015,05,19,08,22,17.80
2015,05,19,08,23,17.90
2015,05,19,08,24,17.90
2015,05,19,08,25,18.00
2015,05,19,08,26,18.10
2015,05,19,08,27,18.10
2015,05,19,08,28,18.10
2015,05,19,08,29,17.90
2015,05,19,08,30,18.00
2015,05,19,08,31,18.10
2015,05,19,08,32,18.10
2015,05,19,08,33,18.20
2015,05,19,08,34,18.20
2015,05,19,08,35,18.30
2015,05,19,08,36,18.30
2015,05,19,08,37,18.30
2015,05,19,08,38,18.30
2015,05,19,08,39,18.20
2015,05,19,08,40,18.10
2015,05,19,08,41,18.10
2015,05,19,08,42,18.00
2015,05,19,08,43,17.90
2015,05,19,08,44,17.90
2015,05,19,08,45,17.80
2015,05,19,08,46,17.80
2015,05,19,08,47,17.80
2015,05,19,08,48,17.80
2015,05,19,08,49,17.80
2015,05,19,08,50,17.80
2015,05,19,08,51,17.80
2015,05,19,08,52,17.80
2015,05,19,08,53,17.80
2015,05,19,08,54,17.80
2015,05,19,08,55,17.80
2015,05,19,08,56,17.70
2015,05,19,08,57,17.70
2015,05,19,08,58,17.70
2015,05,19,08,59,17.70
2015,05,19,09,00,17.60
2015,05,19,09,01,17.60
2015,05,19,09,02,17.70
2015,05,19,09,03,17.60
2015,05,19,09,04,17.60
2015,05,19,09,05,17.60
2015,05,19,09,06,17.60
2015,05,19,09,07,17.60
2015,05,19,09,08,17.60
2015,05,19,09,09,17.70
2015,05,19,09,10,17.80
2015,05,19,09,11,17.80
2015,05,19,09,12,17.90
2015,05,19,09,13,17.90
2015,05,19,09,14,17.80
2015,05,19,09,15,17.70
2015,05,19,09,16,17.60
2015,05,19,09,17,17.50
2015,05,19,09,18,17.30
2015,05,19,09,19,17.30
2015,05,19,09,20,17.30
2015,05,19,09,21,17.30
2015,05,19,09,22,17.30
2015,05,19,09,23,17.30
2015,05,19,09,24,17.30
2015,05,19,09,25,17.30
2015,05,19,09,26,17.40
2015,05,19,09,27,17.40
2015,05,19,09,28,17.50
2015,05,19,09,29,17.60
2015,05,19,09,30,17.70
2015,05,19,09,31,17.80
2015,05,19,09,32,17.90
2015,05,19,09,33,17.90
2015,05,19,09,34,17.90
2015,05,19,09,35,17.90
2015,05,19,09,36,17.90
2015,05,19,09,37,17.90
2015,05,19,09,38,17.90
2015,05,19,09,39,17.90
2015,05,19,09,40,17.80
2015,05,19,09,41,17.70
2015,05,19,09,42,17.60
2015,05,19,09,43,17.60
2015,05,19,09,44,17.60
2015,05,19,09,45,17.50
2015,05,19,09,46,17.50
2015,05,19,09,47,17.50
2015,05,19,09,48,17.50
2015,05,19,09,49,17.40
2015,05,19,09,50,17.40
2015,05,19,09,51,17.40
2015,05,19,09,52,17.40
2015,05,19,09,53,17.40
2015,05,19,09,54,17.40
2015,05,19,09,55,17.50
2015,05,19,09,56,17.40
2015,05,19,09,57,17.30
2015,05,19,09,58,17.30
2015,05,19,09,59,17.30
2015,05,19,10,00,17.40
2015,05,19,10,01,17.40
2015,05,19,10,02,17.50
2015,05,19,10,03,17.50
2015,05,19,10,04,17.40
2015,05,19,10,05,17.40
2015,05,19,10,06,17.40
2015,05,19,10,07,17.40
2015,05,19,10,08,17.50
2015,05,19,10,09,17.50
2015,05,19,10,10,17.50
2015,05,19,10,11,17.50
2015,05,19,10,12,17.50
2015,05,19,10,13,17.40
2015,05,19,10,14,17.30
2015,05,19,10,15,17.30
2015,05,19,10,16,17.30
2015,05,19,10,17,17.30
2015,05,19,10,18,17.30
2015,05,19,10,19,17.30
2015,05,19,10,20,17.30
2015,05,19,10,21,17.40
2015,05,19,10,22,17.50
2015,05,19,10,23,17.50
2015,05,19,10,24,17.60
2015,05,19,10,25,17.70
2015,05,19,10,26,17.80
2015,05,19,10,27,17.90
2015,05,19,10,28,18.10
2015,05,19,10,29,18.20
2015,05,19,10,30,18.10
2015,05,19,10,31,18.20
2015,05,19,10,32,18.00
2015,05,19,10,33,17.90
2015,05,19,10,34,17.80
2015,05,19,10,35,17.90
2015,05,19,10,36,17.90
2015,05,19,10,37,17.90
2015,05,19,10,38,17.90
2015,05,19,10,39,17.90
2015,05,19,10,40,18.00
2015,05,19,10,41,18.10
2015,05,19,10,42,18.20
2015,05,19,10,43,18.40
2015,05,19,10,44,18.50
2015,05,19,10,45,18.60
2015,05,19,10,46,18.60
2015,05,19,10,47,18.60
2015,05,19,10,48,18.60
2015,05,19,10,49,18.50
2015,05,19,10,50,18.40
2015,05,19,10,51,18.30
2015,05,19,10,52,18.40
2015,05,19,10,53,18.40
2015,05,19,10,54,18.40
2015,05,19,10,55,18.40
2015,05,19,10,56,18.30
2015,05,19,10,57,18.30
2015,05,19,10,58,18.30
2015,05,19,10,59,18.30
2015,05,19,11,00,18.20
2015,05,19,11,01,18.20
2015,05,19,11,02,18.20
2015,05,19,11,03,18.20
2015,05,19,11,04,18.20
2015,05,19,11,05,18.20
2015,05,19,11,06,18.20
2015,05,19,11,07,18.20
2015,05,19,11,08,18.20
2015,05,19,11,09,18.20
2015,05,19,11,10,18.20
2015,05,19,11,11,18.20
2015,05,19,11,12,18.20
2015,05,19,11,13,18.20
2015,05,19,11,14,18.20
2015,05,19,11,15,18.20
2015,05,19,11,16,18.20
2015,05,19,11,17,18.20
2015,05,19,11,18,18.20
2015,05,19,11,19,18.30
2015,05,19,11,20,18.40
2015,05,19,11,21,18.50
2015,05,19,11,22,18.60
2015,05,19,11,23,18.70
2015,05,19,11,24,18.70
2015,05,19,11,25,18.90
2015,05,19,11,26,19.00
2015,05,19,11,27,19.10
2015,05,19,11,28,19.20
2015,05,19,11,29,19.20
2015,05,19,11,30,19.20
2015,05,19,11,31,19.20
2015,05,19,11,32,19.20
2015,05,19,11,33,19.10
2015,05,19,11,34,19.10
2015,05,19,11,35,19.10
2015,05,19,11,36,19.00
2015,05,19,11,37,18.90
2015,05,19,11,38,18.90
2015,05,19,11,39,18.90
2015,05,19,11,40,19.10
2015,05,19,11,41,19.00
2015,05,19,11,42,18.90
2015,05,19,11,43,18.80
2015,05,19,11,44,18.80
2015,05,19,11,45,18.80
2015,05,19,11,46,18.80
2015,05,19,11,47,18.90
2015,05,19,11,48,19.00
2015,05,19,11,49,19.10
2015,05,19,11,50,19.00
2015,05,19,11,51,18.90
2015,05,19,11,52,18.90
2015,05,19,11,53,18.80
2015,05,19,11,54,18.70
2015,05,19,11,55,18.70
2015,05,19,11,56,18.80
2015,05,19,11,57,18.80
2015,05,19,11,58,18.90
2015,05,19,11,59,19.10
2015,05,19,12,00,19.10
2015,05,19,12,01,19.10
2015,05,19,12,02,19.20
2015,05,19,12,03,19.30
2015,05,19,12,04,19.40
2015,05,19,12,05,19.50
2015,05,19,12,06,19.60
2015,05,19,12,07,19.60
2015,05,19,12,08,19.50
2015,05,19,12,09,19.40
2015,05,19,12,10,19.40
2015,05,19,12,11,19.30
2015,05,19,12,12,19.20
2015,05,19,12,13,19.10
2015,05,19,12,14,18.90
2015,05,19,12,15,18.90
2015,05,19,12,16,18.70
2015,05,19,12,17,18.60
2015,05,19,12,18,18.50
2015,05,19,12,19,18.50
2015,05,19,12,20,18.40
2015,05,19,12,21,18.20
2015,05,19,12,22,18.20
2015,05,19,12,23,18.20
2015,05,19,12,24,18.20
2015,05,19,12,25,18.20
2015,05,19,12,26,18.20
2015,05,19,12,27,18.40
2015,05,19,12,28,18.40
2015,05,19,12,29,18.40
2015,05,19,12,30,18.40
2015,05,19,12,31,18.50
2015,05,19,12,32,18.60
2015,05,19,12,33,18.70
2015,05,19,12,34,18.80
2015,05,19,12,35,18.90
2015,05,19,12,36,18.90
2015,05,19,12,37,18.90
2015,05,19,12,38,19.00
2015,05,19,12,39,19.10
2015,05,19,12,40,19.10
2015,05,19,12,41,19.10
2015,05,19,12,42,19.00
2015,05,19,12,43,18.90
2015,05,19,12,44,18.90
2015,05,19,12,45,18.90
2015,05,19,12,46,18.80
2015,05,19,12,47,18.70
2015,05,19,12,48,18.60
2015,05,19,12,49,18.60
2015,05,19,12,50,18.60
2015,05,19,12,51,18.60
2015,05,19,12,52,18.60
2015,05,19,12,53,18.50
2015,05,19,12,54,18.60
2015,05,19,12,55,18.70
2015,05,19,12,56,18.70
2015,05,19,12,57,18.80
2015,05,19,12,58,18.90
2015,05,19,12,59,18.90
2015,05,19,13,00,18.90
2015,05,19,13,01,18.90
2015,05,19,13,02,18.80
2015,05,19,13,03,18.80
2015,05,19,13,04,18.80
2015,05,19,13,05,18.80
2015,05,19,13,06,18.80
2015,05,19,13,07,18.70
2015,05,19,13,08,18.70
2015,05,19,13,09,18.80
2015,05,19,13,10,18.80
2015,05,19,13,11,18.80
2015,05,19,13,12,18.80
2015,05,19,13,13,18.90
2015,05,19,13,14,18.90
2015,05,19,13,15,19.00
2015,05,19,13,16,19.10
2015,05,19,13,17,19.00
2015,05,19,13,18,18.90
2015,05,19,13,19,18.70
2015,05,19,13,20,18.60
2015,05,19,13,21,18.60
2015,05,19,13,22,18.50
2015,05,19,13,23,18.50
2015,05,19,13,24,18.50
2015,05,19,13,25,18.60
2015,05,19,13,26,18.80
2015,05,19,13,27,18.90
2015,05,19,13,28,18.80
2015,05,19,13,29,18.80
2015,05,19,13,30,18.70
2015,05,19,13,31,18.50
2015,05,19,13,32,18.50
2015,05,19,13,33,18.40
2015,05,19,13,34,18.30
2015,05,19,13,35,18.30
2015,05,19,13,36,18.30
2015,05,19,13,37,18.40
2015,05,19,13,38,18.50
2015,05,19,13,39,18.60
2015,05,19,13,40,18.60
2015,05,19,13,41,18.60
2015,05,19,13,42,18.70
2015,05,19,13,43,18.70
2015,05,19,13,44,18.60
2015,05,19,13,45,18.60
2015,05,19,13,46,18.60
2015,05,19,13,47,18.80
2015,05,19,13,48,18.90
2015,05,19,13,49,19.00
2015,05,19,13,50,19.10
2015,05,19,13,51,19.10
2015,05,19,13,52,19.10
2015,05,19,13,53,19.10
2015,05,19,13,54,19.20
2015,05,19,13,55,19.20
2015,05,19,13,56,19.20
2015,05,19,13,57,19.20
2015,05,19,13,58,19.20
2015,05,19,13,59,19.30
2015,05,19,14,00,19.40
2015,05,19,14,01,19.60
2015,05,19,14,02,19.60
2015,05,19,14,03,19.60
2015,05,19,14,04,19.60
2015,05,19,14,05,19.60
2015,05,19,14,06,19.70
2015,05,19,14,07,19.80
2015,05,19,14,08,19.90
2015,05,19,14,09,20.10
2015,05,19,14,10,20.20
2015,05,19,14,11,20.30
2015,05,19,14,12,20.40
2015,05,19,14,13,20.40
2015,05,19,14,14,20.40
2015,05,19,14,15,20.20
2015,05,19,14,16,20.00
2015,05,19,14,17,19.90
2015,05,19,14,18,19.90
2015,05,19,14,19,19.90
2015,05,19,14,20,20.00
2015,05,19,14,21,20.20
2015,05,19,14,22,20.20
2015,05,19,14,23,20.30
2015,05,19,14,24,20.50
2015,05,19,14,25,20.60
2015,05,19,14,26,20.60
2015,05,19,14,27,20.50
2015,05,19,14,28,20.40
2015,05,19,14,29,20.50
2015,05,19,14,30,20.50
2015,05,19,14,31,20.60
2015,05,19,14,32,20.60
2015,05,19,14,33,20.70
2015,05,19,14,34,20.70
2015,05,19,14,35,20.70
2015,05,19,14,36,20.70
2015,05,19,14,37,20.70
2015,05,19,14,38,20.70
2015,05,19,14,39,20.80
2015,05,19,14,40,20.90
2015,05,19,14,41,21.00
2015,05,19,14,42,20.90
2015,05,19,14,43,20.80
2015,05,19,14,44,20.70
2015,05,19,14,45,20.60
2015,05,19,14,46,20.60
2015,05,19,14,47,20.70
2015,05,19,14,48,20.80
2015,05,19,14,49,20.90
2015,05,19,14,50,21.00
2015,05,19,14,51,21.00
2015,05,19,14,52,21.10
2015,05,19,14,53,21.20
2015,05,19,14,54,21.10
2015,05,19,14,55,21.10
2015,05,19,14,56,21.00
2015,05,19,14,57,21.10
2015,05,19,14,58,21.20
2015,05,19,14,59,21.20
2015,05,19,15,00,21.30
2015,05,19,15,01,21.30
2015,05,19,15,02,21.30
2015,05,19,15,03,21.40
2015,05,19,15,04,21.40
2015,05,19,15,05,21.40
2015,05,19,15,06,21.30
2015,05,19,15,07,21.40
2015,05,19,15,08,21.50
2015,05,19,15,09,21.60
2015,05,19,15,10,21.60
2015,05,19,15,11,21.40
2015,05,19,15,12,21.30
2015,05,19,15,13,21.30
2015,05,19,15,14,21.20
2015,05,19,15,15,21.20
2015,05,19,15,16,21.30
2015,05,19,15,17,21.30
2015,05,19,15,18,21.30
2015,05,19,15,19,21.30
2015,05,19,15,20,21.10
2015,05,19,15,21,21.10
2015,05,19,15,22,21.10
2015,05,19,15,23,21.20
2015,05,19,15,24,21.30
2015,05,19,15,25,21.30
2015,05,19,15,26,21.30
2015,05,19,15,27,21.20
2015,05,19,15,28,21.10
2015,05,19,15,29,21.00
2015,05,19,15,30,21.00
2015,05,19,15,31,20.90
2015,05,19,15,32,21.00
2015,05,19,15,33,21.00
2015,05,19,15,34,21.00
2015,05,19,15,35,21.00
2015,05,19,15,36,21.00
2015,05,19,15,37,21.00
2015,05,19,15,38,21.00
2015,05,19,15,39,20.90
2015,05,19,15,40,20.90
2015,05,19,15,41,21.00
2015,05,19,15,42,21.00
2015,05,19,15,43,21.10
2015,05,19,15,44,21.10
2015,05,19,15,45,21.10
2015,05,19,15,46,21.10
2015,05,19,15,47,21.10
2015,05,19,15,48,21.00
2015,05,19,15,49,21.00
2015,05,19,15,50,21.00
2015,05,19,15,51,21.00
2015,05,19,15,52,21.00
2015,05,19,15,53,21.10
2015,05,19,15,54,21.30
2015,05,19,15,55,21.40
2015,05,19,15,56,21.50
2015,05,19,15,57,21.60
2015,05,19,15,58,21.60
2015,05,19,15,59,21.60
2015,05,19,16,00,21.70
2015,05,19,16,01,21.80
2015,05,19,16,02,21.80
2015,05,19,16,03,21.80
2015,05,19,16,04,21.80
2015,05,19,16,05,21.70
2015,05,19,16,06,21.70
2015,05,19,16,07,21.70
2015,05,19,16,08,21.80
2015,05,19,16,09,21.70
2015,05,19,16,10,21.70
2015,05,19,16,11,21.60
2015,05,19,16,12,21.60
2015,05,19,16,13,21.60
2015,05,19,16,14,21.60
2015,05,19,16,15,21.60
2015,05,19,16,16,21.70
2015,05,19,16,17,21.70
2015,05,19,16,18,21.70
2015,05,19,16,19,21.80
2015,05,19,16,20,21.80
2015,05,19,16,21,21.80
2015,05,19,16,22,21.80
2015,05,19,16,23,21.80
2015,05,19,16,24,21.80
2015,05,19,16,25,21.70
2015,05,19,16,26,21.70
2015,05,19,16,27,21.70
2015,05,19,16,28,21.70
2015,05,19,16,29,21.80
2015,05,19,16,30,21.90
2015,05,19,16,31,22.00
2015,05,19,16,32,22.00
2015,05,19,16,33,22.00
2015,05,19,16,34,22.00
2015,05,19,16,35,22.00
2015,05,19,16,36,22.00
2015,05,19,16,37,22.10
2015,05,19,16,38,22.00
2015,05,19,16,39,22.00
2015,05,19,16,40,22.00
2015,05,19,16,41,22.00
2015,05,19,16,42,22.10
2015,05,19,16,43,22.10
2015,05,19,16,44,22.20
2015,05,19,16,45,22.20
2015,05,19,16,46,22.10
2015,05,19,16,47,22.10
2015,05,19,16,48,22.00
2015,05,19,16,49,22.00
2015,05,19,16,50,21.90
2015,05,19,16,51,21.80
2015,05,19,16,52,21.80
2015,05,19,16,53,21.90
2015,05,19,16,54,21.90
2015,05,19,16,55,21.90
2015,05,19,16,56,22.00
2015,05,19,16,57,22.00
2015,05,19,16,58,22.00
2015,05,19,16,59,22.00
2015,05,19,17,00,22.00
2015,05,19,17,01,22.00
2015,05,19,17,02,22.00
2015,05,19,17,03,21.90
2015,05,19,17,04,22.00
2015,05,19,17,05,22.10
2015,05,19,17,06,22.20
2015,05,19,17,07,22.20
2015,05,19,17,08,22.20
2015,05,19,17,09,22.20
2015,05,19,17,10,22.30
2015,05,19,17,11,22.40
2015,05,19,17,12,22.50
2015,05,19,17,13,22.60
2015,05,19,17,14,22.60
2015,05,19,17,15,22.70
2015,05,19,17,16,22.70
2015,05,19,17,17,22.60
2015,05,19,17,18,22.60
2015,05,19,17,19,22.50